TimeMDT,TemperatureF,Dew PointF,Humidity,Sea Level PressureIn,VisibilityMPH,Wind Direction,Wind SpeedMPH,Gust SpeedMPH,PrecipitationIn,Events,Conditions,WindDirDegrees,DateUTC
12:15 AM,35.6,24.8,65,30.22,10.0,Calm,Calm,-,N/A,,Clear,0,2012-10-16 06:15:00
12:35 AM,33.8,21.2,60,30.24,10.0,NNW,3.5,-,N/A,,Clear,340,2012-10-16 06:35:00
12:55 AM,32.0,19.4,60,30.24,10.0,SE,3.5,-,N/A,,Clear,140,2012-10-16 06:55:00
1:15 AM,30.2,19.4,64,30.23,10.0,Calm,Calm,-,N/A,,Clear,0,2012-10-16 07:15:00
1:35 AM,33.8,23.0,65,30.25,10.0,Calm,Calm,-,N/A,,Clear,0,2012-10-16 07:35:00
1:55 AM,32.0,23.0,69,30.25,10.0,Calm,Calm,-,N/A,,Clear,0,2012-10-16 07:55:00
2:15 AM,32.0,23.0,69,30.25,10.0,Calm,Calm,-,N/A,,Clear,0,2012-10-16 08:15:00
2:35 AM,30.2,24.8,80,30.25,10.0,Calm,Calm,-,N/A,,Clear,0,2012-10-16 08:35:00
2:55 AM,28.4,19.4,69,30.24,10.0,SSE,4.6,-,N/A,,Clear,160,2012-10-16 08:55:00
3:15 AM,30.2,23.0,75,30.23,10.0,Calm,Calm,-,N/A,,Clear,0,2012-10-16 09:15:00
3:35 AM,30.2,23.0,75,30.22,10.0,Calm,Calm,-,N/A,,Clear,0,2012-10-16 09:35:00
3:55 AM,30.2,21.2,69,30.22,10.0,NNE,3.5,-,N/A,,Clear,30,2012-10-16 09:55:00
4:15 AM,30.2,19.4,64,30.22,10.0,North,3.5,-,N/A,,Clear,10,2012-10-16 10:15:00
4:35 AM,28.4,19.4,69,30.21,10.0,NNW,3.5,-,N/A,,Clear,330,2012-10-16 10:35:00
4:55 AM,26.6,19.4,74,30.21,10.0,Calm,Calm,-,N/A,,Clear,0,2012-10-16 10:55:00
5:35 AM,26.6,21.2,80,30.22,10.0,NNW,4.6,-,N/A,,Clear,340,2012-10-16 11:35:00
6:15 AM,26.6,17.6,69,30.21,10.0,Calm,Calm,-,N/A,,Clear,0,2012-10-16 12:15:00
6:35 AM,24.8,19.4,80,30.21,10.0,Calm,Calm,-,N/A,,Clear,0,2012-10-16 12:35:00
6:55 AM,26.6,19.4,74,30.21,10.0,Calm,Calm,-,N/A,,Clear,0,2012-10-16 12:55:00
7:15 AM,26.6,19.4,74,30.21,10.0,Calm,Calm,-,N/A,,Clear,0,2012-10-16 13:15:00
7:35 AM,26.6,19.4,74,30.21,10.0,Calm,Calm,-,N/A,,Clear,0,2012-10-16 13:35:00
7:55 AM,24.8,17.6,74,30.22,10.0,Calm,Calm,-,N/A,,Clear,0,2012-10-16 13:55:00
8:15 AM,26.6,21.2,80,30.22,10.0,Calm,Calm,-,N/A,,Clear,0,2012-10-16 14:15:00
8:35 AM,28.4,21.2,74,30.23,10.0,Calm,Calm,-,N/A,,Clear,0,2012-10-16 14:35:00
8:55 AM,32.0,23.0,69,30.23,10.0,Calm,Calm,-,N/A,,Clear,0,2012-10-16 14:55:00
9:15 AM,33.8,23.0,65,30.22,10.0,Calm,Calm,-,N/A,,Clear,0,2012-10-16 15:15:00
9:35 AM,35.6,23.0,60,30.21,10.0,NNE,3.5,-,N/A,,Clear,30,2012-10-16 15:35:00
9:55 AM,37.4,24.8,60,30.21,10.0,Calm,Calm,-,N/A,,Clear,0,2012-10-16 15:55:00
10:15 AM,39.2,24.8,56,30.20,10.0,Calm,Calm,-,N/A,,Clear,0,2012-10-16 16:15:00
10:35 AM,42.8,24.8,49,30.18,10.0,Calm,Calm,-,N/A,,Clear,0,2012-10-16 16:35:00
10:55 AM,46.4,24.8,43,30.18,10.0,Calm,Calm,-,N/A,,Clear,0,2012-10-16 16:55:00
11:15 AM,46.4,24.8,43,30.16,10.0,SSE,3.5,-,N/A,,Clear,150,2012-10-16 17:15:00
11:35 AM,50.0,26.6,40,30.15,10.0,SW,4.6,-,N/A,,Clear,220,2012-10-16 17:35:00
12:15 PM,53.6,28.4,38,30.12,10.0,Calm,Calm,-,N/A,,Clear,0,2012-10-16 18:15:00
12:35 PM,55.4,26.6,33,30.10,10.0,NE,8.1,-,N/A,,Clear,40,2012-10-16 18:35:00
1:15 PM,60.8,28.4,29,30.05,10.0,WSW,13.8,21.9,N/A,,Clear,240,2012-10-16 19:15:00
1:35 PM,62.6,26.6,26,30.03,10.0,WSW,11.5,19.6,N/A,,Clear,250,2012-10-16 19:35:00
2:15 PM,64.4,24.8,22,30.00,10.0,SW,17.3,26.5,N/A,,Clear,230,2012-10-16 20:15:00
2:35 PM,64.4,24.8,22,29.99,10.0,WSW,16.1,-,N/A,,Clear,250,2012-10-16 20:35:00
2:55 PM,66.2,24.8,21,29.98,10.0,WSW,13.8,21.9,N/A,,Clear,240,2012-10-16 20:55:00
3:15 PM,66.2,24.8,21,29.97,10.0,WSW,19.6,27.6,N/A,,Clear,250,2012-10-16 21:15:00
4:15 PM,64.4,24.8,22,29.95,10.0,WSW,17.3,28.8,N/A,,Clear,240,2012-10-16 22:15:00
4:35 PM,64.4,24.8,22,29.95,10.0,WSW,18.4,25.3,N/A,,Clear,250,2012-10-16 22:35:00
4:55 PM,62.6,24.8,24,29.94,10.0,West,15.0,24.2,N/A,,Clear,260,2012-10-16 22:55:00
5:15 PM,62.6,26.6,26,29.94,10.0,West,16.1,21.9,N/A,,Clear,260,2012-10-16 23:15:00
5:35 PM,62.6,26.6,26,29.93,10.0,West,13.8,23.0,N/A,,Clear,260,2012-10-16 23:35:00
6:35 PM,60.8,24.8,25,29.92,10.0,West,16.1,19.6,N/A,,Clear,270,2012-10-17 00:35:00
6:55 PM,60.8,24.8,25,29.91,10.0,West,6.9,17.3,N/A,,Clear,260,2012-10-17 00:55:00
7:15 PM,59.0,24.8,27,29.91,10.0,West,9.2,-,N/A,,Clear,280,2012-10-17 01:15:00
7:35 PM,57.2,24.8,29,29.93,10.0,West,8.1,-,N/A,,Partly Cloudy,280,2012-10-17 01:35:00
7:55 PM,57.2,24.8,29,29.93,10.0,West,6.9,-,N/A,,Partly Cloudy,270,2012-10-17 01:55:00
8:15 PM,57.2,24.8,29,29.93,10.0,West,4.6,-,N/A,,Clear,270,2012-10-17 02:15:00
8:35 PM,55.4,24.8,31,29.93,10.0,West,8.1,-,N/A,,Clear,260,2012-10-17 02:35:00
8:55 PM,55.4,26.6,33,29.92,10.0,WNW,5.8,-,N/A,,Clear,290,2012-10-17 02:55:00
9:35 PM,53.6,24.8,33,29.92,10.0,Calm,Calm,-,N/A,,Scattered Clouds,0,2012-10-17 03:35:00
9:55 PM,55.4,26.6,33,29.92,10.0,Calm,Calm,-,N/A,,Overcast,0,2012-10-17 03:55:00
10:15 PM,55.4,26.6,33,29.90,10.0,SW,5.8,-,N/A,,Mostly Cloudy,230,2012-10-17 04:15:00
10:35 PM,55.4,26.6,33,29.91,10.0,WSW,8.1,-,N/A,,Mostly Cloudy,250,2012-10-17 04:35:00
10:55 PM,55.4,26.6,33,29.90,10.0,WSW,5.8,-,N/A,,Mostly Cloudy,240,2012-10-17 04:55:00
11:15 PM,57.2,26.6,31,29.91,10.0,West,16.1,26.5,N/A,,Scattered Clouds,270,2012-10-17 05:15:00
11:35 PM,57.2,26.6,31,29.91,10.0,West,24.2,29.9,N/A,,Partly Cloudy,260,2012-10-17 05:35:00
11:55 PM,-9999,-9999,N/A,29.91,10.0,West,24.2,34.5,N/A,,Partly Cloudy,270,2012-10-17 05:55:00